Location: Ahausen
(50.4985°N, 8.2722°E)
Time: 00:56:40
(UTC+00:00)

Abrixas rocket - Pass Details

Date: 18 September 2020
Orbit: 328 x 336 km, 48.4° (Epoch: 23 October)

Event Time Altitude Azimuth Distance (km) Brightness Sun altitude
Rises 19:35:35 0° 264° (W) 2,094 6.7 -19.5°
Reaches altitude 10° 19:37:35 10° 260° (W) 1,256 5.4 -19.7°
Enters shadow 19:39:25 34° 242° (WSW) 569 3.2 -20.0°
